User: anonymous   Login
Location: Unspecified
(0.0000°N, 0.0000°E)
Time: 10:10:23
(UTC+00:00)
Language:

STARLINK-33629 - Orbit

View from above orbital plane
View from above orbital plane
View from above satellite
View from above satellite

Ground track
Ground track

The orbit is defined by the following mean orbital elements,

1 63388U          26145.43656664 +.00000000 +00000-0 +57561-3 0 00006
2 63388  53.1575  53.5680 0000880  65.0643 295.0449 15.30183372    09
Epoch (UTC): 25 May 2026 10:28:39
Eccentricity: 0.0000880
inclination: 53.1575°
perigee height: 475 km
apogee height: 476 km
right ascension of ascending node: 53.5680°
argument of perigee: 65.0643°
revolutions per day: 15.30183372
mean anomaly at epoch: 295.0449°

The dashed part of the orbit path shows where the satellite is in the earth's shadow,  

DLR